Weather History for Ankeny, IA

Change the Weather History Date:

Wednesday, May 29, 2013

  Actual Average (KDSM) Record (KDSM)
Temperature  
Mean Temperature 72 °F 66 °F  
Max Temperature 80 °F 76 °F 104 °F (1934)
Min Temperature 64 °F 57 °F 32 °F (1947)
Degree Days  
Heating Degree Days 0 2  
Month to date heating degree days 142  
Since 1 July heating degree days 6181  
Cooling Degree Days 7 4  
Month to date cooling degree days 55  
Year to date cooling degree days 69  
Growing Degree Days 22 (Base 50)    
Moisture  
Dew Point 65 °F    
Average Humidity 83    
Maximum Humidity 100    
Minimum Humidity 69    
Precipitation  
Precipitation 0.41 in 0.15 in 1.41 in (1880)
Month to date precipitation 4.43  
Year to date precipitation 12.87  
Snow  
Snow 0.00 in 0.00 in - ()
Month to date snowfall 0.0  
Since 1 July snowfall 35.3  
Snow Depth -    
Sea Level Pressure  
Sea Level Pressure 29.74 in    
Wind  
Wind Speed 10 mph (South)    
Max Wind Speed 22 mph    
Max Gust Speed 30 mph    
Visibility 10 miles    
Events Rain    
T = Trace of Precipitation, MM = Missing Value Source: NWS Daily Summary

Daily Weather History Graph

Daily Weather History Graph

Search for Another Location

Airport:

Trip Planner

Search our weather history database for the weather conditions in past years. The results will help you decide how hot, cold, wet, or windy it might be!

Date:

Astronomy

May. 29, 2013 Rise Set
Actual Time 5:43 AM CDT 8:40 PM CDT
Civil Twilight 5:10 AM CDT 9:13 PM CDT
Nautical Twilight 4:28 AM CDT 9:55 PM CDT
Astronomical Twilight 3:39 AM CDT 10:44 PM CDT
Moon 12:01 AM CDT 10:45 AM CDT
Length of Visible Light 16h 03m
Length of Day
14h 56m
Waning Gibbous, 73% of the Moon is Illuminated
May 29
Waning Gibbous
May 31
Last Quarter
Jun 8
New
Jun 16
First Quarter
Jun 23
Full

Hourly Weather History & Observations

Time (CDT) Temp. Heat Index Dew Point Humidity Pressure Visibility Wind Dir Wind Speed Gust Speed Precip Events Conditions
12:15 AM 66.2 °F - 62.6 °F 88% 29.77 in 10.0 mi South 6.9 mph - N/A   Scattered Clouds
12:35 AM 66.2 °F - 60.8 °F 83% 29.77 in 10.0 mi SSE 9.2 mph - N/A   Mostly Cloudy
12:55 AM 66.2 °F - 60.8 °F 83% 29.76 in 10.0 mi SSE 6.9 mph - N/A   Clear
1:15 AM 66.2 °F - 60.8 °F 83% 29.75 in 10.0 mi SSE 6.9 mph - N/A   Clear
1:35 AM 66.2 °F - 60.8 °F 83% 29.74 in 10.0 mi South 8.1 mph - N/A   Clear
1:55 AM 66.2 °F - 60.8 °F 83% 29.74 in 10.0 mi South 9.2 mph - N/A   Clear
2:15 AM 66.2 °F - 60.8 °F 83% 29.75 in 10.0 mi South 11.5 mph - N/A   Clear
2:35 AM 66.2 °F - 60.8 °F 83% 29.75 in 10.0 mi South 9.2 mph - N/A   Clear
2:55 AM 66.2 °F - 60.8 °F 83% 29.75 in 10.0 mi South 8.1 mph - N/A   Clear
3:15 AM 66.2 °F - 60.8 °F 83% 29.77 in 10.0 mi SW 10.4 mph 16.1 mph N/A   Clear
3:35 AM 66.2 °F - 60.8 °F 83% 29.77 in 10.0 mi SSW 11.5 mph 19.6 mph N/A   Clear
3:55 AM 66.2 °F - 59.0 °F 78% 29.78 in 10.0 mi South 9.2 mph - N/A   Clear
4:15 AM 66.2 °F - 59.0 °F 78% 29.78 in 10.0 mi South 11.5 mph - N/A   Clear
4:35 AM 66.2 °F - 59.0 °F 78% 29.79 in 10.0 mi South 12.7 mph - N/A   Clear
4:55 AM 66.2 °F - 59.0 °F 78% 29.79 in 10.0 mi South 9.2 mph - N/A   Clear
5:15 AM 64.4 °F - 59.0 °F 83% 29.79 in 10.0 mi South 4.6 mph - N/A   Clear
5:35 AM 64.4 °F - 59.0 °F 83% 29.80 in 10.0 mi South 5.8 mph - N/A   Partly Cloudy
5:55 AM 64.4 °F - 59.0 °F 83% 29.79 in 10.0 mi South 5.8 mph - N/A   Partly Cloudy
6:15 AM 66.2 °F - 59.0 °F 78% 29.79 in 10.0 mi South 6.9 mph - N/A   Scattered Clouds
6:35 AM 66.2 °F - 59.0 °F 78% 29.80 in 10.0 mi SSE 10.4 mph - N/A   Partly Cloudy
6:55 AM 66.2 °F - 59.0 °F 78% 29.79 in 10.0 mi SSE 10.4 mph - N/A   Clear
7:15 AM 66.2 °F - 59.0 °F 78% 29.79 in 10.0 mi SSE 12.7 mph - N/A   Clear
7:35 AM 66.2 °F - 60.8 °F 83% 29.79 in 10.0 mi SSE 10.4 mph - N/A   Clear
7:55 AM 66.2 °F - 60.8 °F 83% 29.79 in 10.0 mi SSE 12.7 mph - N/A   Clear
8:15 AM 68.0 °F - 62.6 °F 83% 29.79 in 10.0 mi SSE 12.7 mph - N/A   Clear
8:35 AM 68.0 °F - 62.6 °F 83% 29.79 in 10.0 mi SSE 12.7 mph 20.7 mph N/A   Clear
8:55 AM 68.0 °F - 62.6 °F 83% 29.78 in 10.0 mi SSE 11.5 mph - N/A   Clear
9:15 AM 71.6 °F - 62.6 °F 73% 29.78 in 10.0 mi South 18.4 mph - N/A   Clear
9:35 AM 71.6 °F - 64.4 °F 78% 29.78 in 10.0 mi South 15.0 mph - N/A   Clear
9:55 AM 73.4 °F - 64.4 °F 73% 29.76 in 10.0 mi South 12.7 mph 23.0 mph N/A   Clear
10:15 AM 75.2 °F - 66.2 °F 73% 29.76 in 10.0 mi South 16.1 mph 24.2 mph N/A   Partly Cloudy
10:35 AM 73.4 °F - 66.2 °F 78% 29.75 in 10.0 mi South 11.5 mph 19.6 mph N/A   Clear
10:55 AM 77.0 °F - 66.2 °F 69% 29.74 in 10.0 mi South 13.8 mph 23.0 mph N/A   Clear
11:15 AM 77.0 °F - 68.0 °F 74% 29.74 in 10.0 mi South 16.1 mph - N/A   Clear
11:35 AM 77.0 °F - 68.0 °F 74% 29.74 in 10.0 mi South 16.1 mph 24.2 mph N/A   Clear
11:55 AM 78.8 °F - 68.0 °F 69% 29.75 in 10.0 mi South 17.3 mph - N/A   Partly Cloudy
12:15 PM 80.6 °F 83.9 °F 69.8 °F 70% 29.74 in 10.0 mi South 19.6 mph - N/A   Partly Cloudy
12:35 PM 80.6 °F 83.9 °F 69.8 °F 70% 29.74 in 10.0 mi South 13.8 mph - N/A   Scattered Clouds
12:55 PM 78.8 °F - 68.0 °F 69% 29.75 in 10.0 mi SSW 16.1 mph 27.6 mph N/A   Mostly Cloudy
1:15 PM 78.8 °F - 69.8 °F 74% 29.74 in 10.0 mi South 11.5 mph - N/A   Overcast
1:35 PM 78.8 °F - 69.8 °F 74% 29.73 in 10.0 mi SSW 13.8 mph 21.9 mph N/A   Overcast
1:55 PM 78.8 °F - 69.8 °F 74% 29.72 in 10.0 mi SSW 12.7 mph 19.6 mph N/A   Overcast
2:15 PM 80.6 °F 83.9 °F 69.8 °F 70% 29.71 in 10.0 mi South 8.1 mph - N/A   Mostly Cloudy
2:35 PM 78.8 °F - 69.8 °F 74% 29.68 in 9.0 mi SSW 9.2 mph - N/A   Overcast
2:55 PM 71.6 °F - 66.2 °F 83% 29.71 in 3.0 mi WNW 12.7 mph 26.5 mph 0.21 in   Light Drizzle
3:15 PM 66.2 °F - 62.6 °F 88% 29.72 in 2.5 mi West 21.9 mph 29.9 mph N/A Rain Rain
3:35 PM 66.2 °F - 64.4 °F 94% 29.70 in 1.5 mi West 17.3 mph 23.0 mph N/A Rain Rain
3:55 PM 66.2 °F - 64.4 °F 94% 29.72 in 6.0 mi West 8.1 mph 16.1 mph 0.19 in   Light Drizzle
4:15 PM 66.2 °F - 66.2 °F 100% 29.71 in 10.0 mi West 4.6 mph - N/A   Mostly Cloudy
4:35 PM 68.0 °F - 66.2 °F 94% 29.69 in 10.0 mi East 9.2 mph - N/A   Partly Cloudy
4:55 PM 68.0 °F - 66.2 °F 94% 29.69 in 10.0 mi ENE 4.6 mph - N/A   Clear
5:15 PM 68.0 °F - 66.2 °F 94% 29.71 in 10.0 mi ENE 4.6 mph - N/A   Mostly Cloudy
5:35 PM 68.0 °F - 66.2 °F 94% 29.70 in 10.0 mi NW 5.8 mph - N/A   Mostly Cloudy
5:55 PM 69.8 °F - 68.0 °F 94% 29.70 in 10.0 mi NE 5.8 mph - 0.01 in   Mostly Cloudy
6:15 PM 69.8 °F - 66.2 °F 88% 29.70 in 10.0 mi NE 6.9 mph - N/A   Scattered Clouds
6:35 PM 69.8 °F - 66.2 °F 88% 29.69 in 10.0 mi Variable 5.8 mph 12.7 mph N/A   Mostly Cloudy
6:55 PM 69.8 °F - 66.2 °F 88% 29.69 in 10.0 mi NE 6.9 mph - N/A   Mostly Cloudy
7:15 PM 69.8 °F - 66.2 °F 88% 29.69 in 10.0 mi ENE 10.4 mph - N/A   Mostly Cloudy
7:35 PM 69.8 °F - 66.2 °F 88% 29.68 in 10.0 mi ENE 8.1 mph - N/A   Mostly Cloudy
7:55 PM 68.0 °F - 66.2 °F 94% 29.68 in 10.0 mi East 6.9 mph - N/A   Partly Cloudy
8:15 PM 68.0 °F - 66.2 °F 94% 29.69 in 10.0 mi ESE 4.6 mph - N/A   Mostly Cloudy
8:35 PM 68.0 °F - 66.2 °F 94% 29.69 in 10.0 mi SSE 5.8 mph - N/A   Overcast
8:55 PM 68.0 °F - 68.0 °F 100% 29.69 in 10.0 mi Calm Calm - N/A   Overcast
9:15 PM 69.8 °F - 68.0 °F 94% 29.70 in 10.0 mi SSE 5.8 mph - N/A   Overcast
9:35 PM 69.8 °F - 68.0 °F 94% 29.70 in 10.0 mi SSE 5.8 mph - N/A   Overcast
9:55 PM 71.6 °F - 68.0 °F 88% 29.70 in 10.0 mi SSE 8.1 mph - N/A   Overcast
10:15 PM 73.4 °F - 66.2 °F 78% 29.71 in 10.0 mi SSE 8.1 mph - N/A   Overcast
10:35 PM 71.6 °F - 68.0 °F 88% 29.70 in 10.0 mi SSE 8.1 mph - N/A   Mostly Cloudy
10:55 PM 71.6 °F - 68.0 °F 88% 29.69 in 10.0 mi SSE 8.1 mph - N/A   Mostly Cloudy
11:15 PM 73.4 °F - 68.0 °F 83% 29.68 in 10.0 mi SSE 11.5 mph - N/A   Mostly Cloudy
11:35 PM 73.4 °F - 68.0 °F 83% 29.67 in 10.0 mi SSE 12.7 mph 18.4 mph N/A   Scattered Clouds
11:55 PM 73.4 °F - 68.0 °F 83% 29.67 in 10.0 mi SSE 12.7 mph - N/A   Mostly Cloudy